Regional Weather Roundup
Issued by NWS

Home | Current Version | Previous Version | Text Only | Print | Product List | Glossary Off
Versions: 1 2 3 4 5 6 7 8 9 10 11 12 13 14 15 16 17 18 19 20 21 22 23 24 25 26 27 28 29 30 31 32 33 34 35 36 37 38 39 40 41 42 43 44 45 46 47 48 49 50

000
ASUS43 KLOT 232200
RWRIL

ILLINOIS REGIONAL WEATHER ROUNDUP
NATIONAL WEATHER SERVICE CHICAGO/ROMEOVILLE IL
500 PM CDT WED JUL 23 2014

NOTE: "FAIR" INDICATES FEW OR NO CLOUDS BELOW 12,000 FEET WITH NO
SIGNIFICANT WEATHER AND/OR OBSTRUCTIONS TO VISIBILITY.

* THESE STATIONS ARE NOT UNDER NWS QUALITY CONTROL. THEY ALSO MAY NOT
  REPORT WEATHER SUCH AS PRECIPITATION OR FOG.

ILZ001-002-007-009-015-016-024-232300-
NORTHWEST ILLINOIS

CITY           SKY/WX    TMP DP  RH WIND       PRES   REMARKS
MOLINE         MOSUNNY   78  53  41 N10G18    30.13F
STERLING*      MOSUNNY   79  57  47 NE10      30.13F HX  80
$$

ILZ003-004-008-010-011-017-018-232300-
NORTH CENTRAL ILLINOIS

CITY           SKY/WX    TMP DP  RH WIND       PRES   REMARKS
ROCKFORD       PTSUNNY   76  52  43 N15       30.15F
FREEPORT*      MOSUNNY   76  59  55 N7        30.17F
$$

ILZ005-006-012>014-019>023-232300-
NORTHEAST ILLINOIS

CITY           SKY/WX    TMP DP  RH WIND       PRES   REMARKS
CHICAGO-OHARE  MOSUNNY   69  50  50 NE18G25   30.14S
CHICAGO-MIDWAY MOSUNNY   71  53  52 NE16G26   30.13F
AURORA         MOSUNNY   76  55  48 N10       30.11F
LANSING*       SUNNY     68  50  52 N15G30    30.13S
WAUKEGAN       SUNNY     64  53  67 N18G29    30.15S
DUPAGE AIRPORT MOSUNNY   74  54  49 E15       30.12S
WHEELING       SUNNY     68  53  58 NE16G23   30.16S
NORTHERLY ISL    N/A     65  54  67 MISG        N/A
$$

LMZ740>746-232300-
SOUTHERN LAKE MICHIGAN

STATION/POSITION SKY/WX   TEMP    WIND        PRES    VSBY  WAVE
                          AIR SEA DIR/SP/G                  HT/PER
                          (F)     (DEG/KT/KT) (MB)    (MI)  (FT/S)
SOUTHERN BUOY              59 60  360/ 17/ 21 1020.5F         5/ 6
WAUKEGAN HARBOR            61      20/ 19/ 22 1021.7F
HARRISON CRIB              62      10/ 20/ 22   N/A
BURNHAM HARBOR             65      10/ 12/ 15   N/A
CALUMET HARBOR             65     340/ 13/ 19 1019.5F
BURNS HARBOR               64     360/ 21/ 25 1020.3
MICHIGAN CITY              63     340/ 26/ 32   N/A
$$

ILZ025>027-034>036-040-047-049-050-058-095>099-232300-
WEST-CENTRAL ILLINOIS

CITY           SKY/WX    TMP DP  RH WIND       PRES   REMARKS
QUINCY         MOSUNNY   80  61  52 N15       30.10F HX  81
GALESBURG*     MOSUNNY   79  59  49 NE12G21   30.13F HX  80
MACOMB*        MOSUNNY   76  58  52 NE9       30.14S
$$

ILZ028>032-037-038-041>044-048-051>054-059>061-232300-
CENTRAL ILLINOIS

CITY           SKY/WX    TMP DP  RH WIND       PRES   REMARKS
DECATUR        SUNNY     81  61  50 NE14      30.10R HX  81
PEORIA         PTSUNNY   79  55  43 NE12      30.11F
SPRINGFIELD    MOSUNNY   80  60  50 NE15      30.09F HX  81
TAYLORVILLE    NOT AVBL
$$

ILZ033-039-045-046-055>057-062-063-232300-
EAST-CENTRAL ILLINOIS

CITY           SKY/WX    TMP DP  RH WIND       PRES   REMARKS
CHAMPAIGN      SUNNY     75  57  53 NE18      30.09R
MATTOON        SUNNY     77  60  55 N18       30.05R
$$

ILZ079-100>102-232300-
SOUTHWEST ILLINOIS

CITY           SKY/WX    TMP DP  RH WIND       PRES   REMARKS
ALTON          PTSUNNY   79  68  69 N12       30.06F HX  81
BELLEVILLE     MOSUNNY   83  69  63 N17G23    30.03S HX  86
CAHOKIA*       SUNNY     85  66  53 N16G23    30.03F HX  87
SPARTA*        CLOUDY    79  70  73 NE10      30.04S HX  81
$$

ILZ064>066-069>071-074>076-080>082-084>086-088>090-092>094-232300-
SOUTH-CENTRAL ILLINOIS

CITY           SKY/WX    TMP DP  RH WIND       PRES   REMARKS
CARBONDALE     PTSUNNY   82  71  69 NE3       30.00F HX  86
MT. VERNON     MOSUNNY   75  68  78 N5        30.03F
SALEM*         CLOUDY    80  69  69 N8        30.03S HX  83
$$

ILZ067-068-072-073-078-083-087-091-232300-
SOUTHEAST ILLINOIS

CITY           SKY/WX    TMP DP  RH WIND       PRES   REMARKS
HARRISBURG*    CLOUDY    78  72  81 N3        30.02S HX  80
ROBINSON*      CLOUDY    77  70  80 CALM      30.03S
$$

ABBREVIATIONS USED IN REMARKS
   TC - TEMPERATURE IN CELSIUS
  WCI - WIND CHILL INDEX
   HX - HEAT INDEX
  VSB - VISIBILITY
$$




USA.gov is the U.S. government's official web portal to all federal, state and local government web resources and services.